TimeEDT,TemperatureF,Dew PointF,Humidity,Sea Level PressureIn,VisibilityMPH,Wind Direction,Wind SpeedMPH,Gust SpeedMPH,PrecipitationIn,Events,Conditions,WindDirDegrees,DateUTC
12:51 AM,57.0,51.1,81,30.04,10.0,SSE,3.5,-,N/A,,Overcast,150,2013-09-30 04:51:00
1:42 AM,57.2,51.8,82,30.11,10.0,SE,4.6,-,N/A,,Overcast,130,2013-09-30 05:42:00
1:51 AM,57.9,51.1,78,30.04,10.0,Calm,Calm,-,N/A,,Overcast,0,2013-09-30 05:51:00
2:09 AM,57.2,51.8,82,30.10,10.0,SE,4.6,-,N/A,,Overcast,130,2013-09-30 06:09:00
2:51 AM,57.9,52.0,81,30.03,10.0,South,5.8,-,N/A,,Overcast,180,2013-09-30 06:51:00
3:31 AM,57.2,53.6,88,30.09,1.8,North,5.8,-,N/A,,Overcast,360,2013-09-30 07:31:00
3:48 AM,57.2,53.6,88,30.09,10.0,East,3.5,-,N/A,,Overcast,90,2013-09-30 07:48:00
3:51 AM,57.0,53.1,87,30.02,10.0,Calm,Calm,-,N/A,,Overcast,0,2013-09-30 07:51:00
4:51 AM,57.0,52.0,83,30.04,10.0,SSE,4.6,-,0.00,,Overcast,150,2013-09-30 08:51:00
5:31 AM,55.4,51.8,88,30.10,7.0,SSE,4.6,-,0.00,Rain,Light Rain,150,2013-09-30 09:31:00
5:38 AM,55.4,51.8,88,30.10,5.0,SSE,5.8,-,0.00,Rain,Light Rain,160,2013-09-30 09:38:00
5:46 AM,55.4,53.6,94,30.10,3.0,SSE,4.6,-,0.01,Rain,Light Rain,150,2013-09-30 09:46:00
5:51 AM,55.9,53.1,90,30.05,3.0,SSE,5.8,-,0.01,Rain,Light Rain,150,2013-09-30 09:51:00
5:59 AM,55.4,53.6,94,30.10,2.5,SE,4.6,-,0.03,Rain,Rain,140,2013-09-30 09:59:00
6:11 AM,55.4,53.6,94,30.10,5.0,SE,4.6,-,0.05,Rain,Light Rain,130,2013-09-30 10:11:00
6:43 AM,55.4,53.6,94,30.11,5.0,SE,3.5,-,0.06,Rain,Light Rain,140,2013-09-30 10:43:00
6:51 AM,55.9,53.1,90,30.07,4.0,Calm,Calm,-,0.06,Rain,Light Rain,0,2013-09-30 10:51:00
7:51 AM,55.9,54.0,93,30.08,9.0,SSE,5.8,-,0.01,,Overcast,150,2013-09-30 11:51:00
8:30 AM,57.2,53.6,88,30.12,10.0,SSE,4.6,-,N/A,,Overcast,160,2013-09-30 12:30:00
8:51 AM,57.0,55.0,93,30.09,10.0,Calm,Calm,-,N/A,,Overcast,0,2013-09-30 12:51:00
9:51 AM,59.0,55.0,87,30.08,10.0,Calm,Calm,-,N/A,,Mostly Cloudy,0,2013-09-30 13:51:00
10:51 AM,61.0,55.9,83,30.08,10.0,SSW,4.6,-,N/A,,Overcast,200,2013-09-30 14:51:00
11:51 AM,64.0,57.9,80,30.07,10.0,SW,5.8,-,N/A,,Overcast,230,2013-09-30 15:51:00
12:51 PM,68.0,55.0,63,30.04,10.0,Calm,Calm,-,N/A,,Scattered Clouds,0,2013-09-30 16:51:00
1:51 PM,66.9,55.0,66,30.03,10.0,WNW,5.8,-,N/A,,Overcast,300,2013-09-30 17:51:00
2:51 PM,66.9,54.0,63,30.02,10.0,Calm,Calm,-,N/A,,Overcast,0,2013-09-30 18:51:00
3:51 PM,70.0,53.1,55,30.00,10.0,NNW,3.5,-,N/A,,Mostly Cloudy,330,2013-09-30 19:51:00
4:51 PM,66.9,53.1,61,30.01,10.0,Calm,Calm,-,N/A,,Scattered Clouds,0,2013-09-30 20:51:00
5:51 PM,66.0,55.0,68,30.01,10.0,ESE,3.5,-,N/A,,Overcast,110,2013-09-30 21:51:00
6:51 PM,64.0,57.9,80,30.03,10.0,North,3.5,-,N/A,,Overcast,360,2013-09-30 22:51:00
7:51 PM,64.0,55.9,75,30.05,10.0,Calm,Calm,-,N/A,,Overcast,0,2013-09-30 23:51:00
8:51 PM,62.1,57.0,84,30.06,10.0,North,3.5,-,N/A,,Overcast,10,2013-10-01 00:51:00
9:51 PM,59.0,55.9,90,30.07,10.0,Calm,Calm,-,N/A,,Mostly Cloudy,0,2013-10-01 01:51:00
10:51 PM,57.0,55.0,93,30.08,8.0,Calm,Calm,-,N/A,,Partly Cloudy,0,2013-10-01 02:51:00
11:51 PM,55.9,54.0,93,30.07,7.0,Calm,Calm,-,N/A,,Clear,0,2013-10-01 03:51:00